Other Public Products
Issued by NWS Grand Forks, ND

Home |  Current Version |  Previous Version |  Text Only |  Print | Product List |  Glossary On
Versions: 1 2 3 4 5 6 7 8 9 10 11 12 13 14 15 16 17 18 19 20 21 22 23 24 25 26 27 28 29 30 31 32 33 34 35 36 37 38 39 40 41 42 43 44 45 46 47 48 49 50
178
FPUS83 KFGF 150431
OPUFGF
PRAIRIE TO PINES WEATHER ROUNDUP
NATIONAL WEATHER SERVICE EASTERN NORTH DAKOTA/GRAND FORKS ND
1100 PM CDT FRI JUN 14 2024

 **SATELLITE DATA USED TO AUGMENT SKY COVER AT AUTOMATED STATIONS**
 *****  WEATHER ACROSS EASTERN NORTH DAKOTA  *****

CITY           SKY/WX    TMP DP  RH WIND       PRES   REMARKS
GRAND FORKS    LGT RAIN  64  60  87 SW6       29.96S FOG
GRND FORKS AFB LGT RAIN  63  60  90 W6        29.96R
GRND FORKS NWS   N/A     62  62  98 W1        29.93R
BUXTON         NOT AVBL
DEVILS LAKE    LGT RAIN  62  59  90 SE9       29.79F
FARGO          CLOUDY    71  57  61 E8        29.96R
WAHPETON ARPT  CLOUDY    73  54  49 SE7       29.95S
$$

 *****  WEATHER ACROSS CENTRAL AND WESTERN NORTH DAKOTA  *****

CITY           SKY/WX    TMP DP  RH WIND       PRES   REMARKS
JAMESTOWN      MOCLDY    65  60  84 E12       29.92S
BISMARCK       FAIR      70  54  56 SE14      29.84F
MINOT          FAIR      63  57  81 SE17G26   29.82S
MINOT AFB      PTCLDY    62  57  86 S13       29.79S
GARRISON         N/A     63  57  81 E16       29.82S
WILLISTON      NOT AVBL
DICKINSON      FAIR      67  58  72 SE12      29.76R
HETTINGER      FAIR      70  58  65 SE10      29.81R
$$

 *****  OTHER OBSERVATIONS NORTHEAST NORTH DAKOTA  *****

CITY           SKY/WX    TMP DP  RH WIND       PRES   REMARKS
WALHALLA       CLOUDY    66  61  82 VRB7G15   29.88F
LANGDON        FAIR      63  63 100 S20       29.90F
CAVALIER       CLOUDY    66  63  88 S14G23    29.90F
GRAFTON        LGT RAIN  63  63 100 S10       29.92F
CANDO          CLOUDY    63  63 100 S18       29.89F
FORT TOTTEN      N/A     61  59  94 SE7       29.95S
ROLLA          MOCLDY    61  61 100 S8        29.88F
RUGBY          NOT AVBL
 ***** THE ABOVE OBSERVATIONS ARE NON NWS ARE NOT QUALITY
        CONTROLLED AND MAY MIS-REPORT RAIN FOR SNOW...
$$

 *****  OTHER OBSERVATIONS SOUTHEAST NORTH DAKOTA *****

CITY           SKY/WX    TMP DP  RH WIND       PRES   REMARKS
COOPERSTOWN      N/A     64  64 100 NE9       29.97R
VALLEY CITY    MOCLDY    66  59  77 E10       29.93F
OAKES          FAIR      70  59  68 E9        29.95R HAZE
GWINNER        MOCLDY    72  55  56 SE10      29.95S
BUFFALO        NOT AVBL
WYNDMERE       NOT AVBL
 ***** THE ABOVE OBSERVATIONS ARE NON NWS ARE NOT QUALITY
       CONTROLLED AND MAY MIS-REPORT RAIN FOR SNOW...
$$

  *****  WEATHER ACROSS NORTHERN MINNESOTA  *****

CITY           SKY/WX    TMP DP  RH WIND       PRES   REMARKS
FLAG ISLAND    FAIR      66  59  77 S3        29.95F
WARROAD        FAIR      68  57  68 S5        29.95S
ROSEAU         FAIR      66  57  72 SE5       29.94S
HALLOCK        FAIR      68  59  73 SW15      29.92F
THF RVR FALLS  RAIN      67  57  70 SW17      29.98R
HALSTAD        NOT AVBL
FOSSTON        RAIN      64  55  72 SW8       30.00S
BAUDETTE       FAIR      67  53  61 CALM      29.97F
WASKISH        FAIR      66  57  72 CALM      29.98F
CROOKSTON      LGT RAIN  64  59  82 W3        29.98F
$$
  *****  WEATHER ACROSS CENTRAL AND WEST MINNESOTA  *****

CITY           SKY/WX    TMP DP  RH WIND       PRES   REMARKS
BEMIDJI        FAIR      66  55  66 S6        29.98F
PARK RAPIDS    FAIR      68  53  58 SE5       30.00F
WADENA         MOCLDY    66  54  63 SE6       30.01R
DETROIT LAKES  CLOUDY    68  57  68 SE3       30.01R
MOORHEAD       CLOUDY    70  57  64 E7        29.97S
FERGUS FALLS   CLOUDY    70  55  60 SE9       29.98R
ELBOW LAKE     CLOUDY    74  49  41 SE8       30.00R
MORRIS MN      FAIR      70  52  52 SE8       29.97S
STAPLES        FAIR      66  54  63 CALM      30.02S
WHEATON        FAIR      66  52  59 SE6       29.98R
$$
  *****  WEATHER ELSEWHERE ACROSS MINNESOTA  *****

CITY           SKY/WX    TMP DP  RH WIND       PRES   REMARKS
DULUTH         FAIR      51  41  68 E5        30.08S
INTRNTL FALLS  FAIR      62  53  72 CALM      29.99S
ELY            CLOUDY    61  46  59 CALM      30.06S
CLOQUET        FAIR      48  43  81 E3        30.06F
BRAINERD       FAIR      65  55  70 SE6       30.03F
HIBBING        FAIR      60  49  66 SE5       30.05R
ALEXANDRIA     CLOUDY    71  50  47 SE8       30.01F
SAINT CLOUD    FAIR      66  55  67 E5        30.03R
MINNEAPOLIS    MOCLDY    71  53  52 SE7       30.03F
$$

  *****  WEATHER ACROSS SOUTH DAKOTA  *****

CITY           SKY/WX    TMP DP  RH WIND       PRES   REMARKS
SIOUX FALLS    LGT RAIN  77  51  40 SE14      29.96F
BROOKINGS      FAIR      71  53  52 SE8       29.98S
WATERTOWN      FAIR      72  53  51 SE8       29.96S
HURON          FAIR      73  53  49 SE10      29.89S
SISSETON         N/A     71  56  58 SE8       29.94R
ABERDEEN       FAIR      73  53  49 SE10      29.89S
MITCHELL       FAIR      73  54  51 S12       29.90F
PIERRE         FAIR      71  58  63 S13       29.85S
MOBRIDGE       FAIR      70  56  61 SE10      29.83R
RAPID CITY     FAIR      69  59  70 S12       29.89R
$$

  *****  SOME WEATHER IN NEARBY STATES *****

CITY           SKY/WX    TMP DP  RH WIND       PRES   REMARKS
GLASGOW MT     FAIR      73  46  38 W5        29.73R
GREAT FALLS MT FAIR      66  31  27 N7        29.85R
CHEYENNE WY    CLOUDY    62  58  86 VRB3      30.08R
SCOTTSBLUFF NE FAIR      63  59  87 SE8       29.95S
OMAHA NE       MOCLDY    77  56  48 SE8       29.98S
DES MOINES IA  FAIR      75  50  41 E8        30.04R
DAVENPORT IA   FAIR      69  55  60 NE8       30.07R
CHICAGO IL     FAIR      64  46  52 N7        30.08R
EAU CLAIRE WI  FAIR      62  57  83 CALM      30.05F
LA CROSSE WI   FAIR      66  56  70 E5        30.05F
$$

  *****  SOME NATIONAL WEATHER *****

CITY           SKY/WX    TMP DP  RH WIND       PRES   REMARKS
LA GUARDIA NY  MOCLDY    69  62  78 NW7       29.88R
RALEIGH NC     FAIR      78  67  68 CALM      29.91R
ATLANTA GA     FAIR      87  62  43 N6        29.98S
NEW ORLEANS LA FAIR      84  75  74 S3        29.94R HX  92
OKLAHOMA CITY  FAIR      76  70  82 S7        29.96R
ALBUQUERQUE NM FAIR      67  53  61 E5        30.13R
SALT LAKE CITY MOCLDY    86  42  21 E8        29.84S
LOS ANGELES CA FAIR      62  58  86 W7        29.87S
BOISE ID       FAIR      77  33  20 NW10      29.84R
SEATTLE WA     MOCLDY    54  47  77 S8        30.07F
$$

*** WEATHER ACROSS MANITOBA...SASKATCHEWAN AND ONTARIO ***
                ***ONTARIO***

CITY           SKY/WX    TMP DP  RH WIND       PRES   REMARKS
GERALDTON      NOT AVBL
THUNDER BAY    MOCLDY    52  45  76 NE3       30.09
SIOUX LOOKOUT  MOCLDY    63  54  72 SE6       30.00S
TORONTO        CLEAR     61  46  59 NW10      30.02S
BIG TROUT LK   CLEAR     54  39  58 S8        29.97S
PICKLE LAKE    PTCLDY    59  45  58 S6        30.00S
DRYDEN         MOCLDY    63  52  67 SE10      29.99R
KENORA         PTCLDY    66  52  59 S7        29.96S
$$
                *** MANITOBA***

CITY           SKY/WX    TMP DP  RH WIND       PRES   REMARKS
BRANDON        PTCLDY    66  54  63 SW10      29.86R
DAUPHIN        CLOUDY    63  57  82 SE5       29.83S
ISLAND LAKE    CLOUDY    59  46  63 SE6       29.87F
PILOT MOUND      N/A     63  57  82 S14G20      N/A
THE PAS        MOCLDY    63  54  72 SE8       29.81F
THOMPSON       MOCLDY    61  43  51 S5        29.81S
WINNIPEG       MOCLDY    68  55  64 S10       29.85F
LYNN LAKE      LGT RAIN  55  55 100 VRB2      29.81R
CHURCHILL      MOCLDY    52  41  66 S16G23    29.74F
GILLAM         MOCLDY    59  45  58 E5        29.82F
$$
                ***SASKATCHEWAN***

CITY           SKY/WX    TMP DP  RH WIND       PRES   REMARKS
ESTEVAN        CLEAR     63  55  77 SE15G21   29.77F
KINDERSLEY     PTCLDY    68  37  32 SW13G18   29.64S
LLOYDMINSTER   MOCLDY    54  52  94 NE7       29.69S
PRINCE ALBERT  LGT RAIN  63  52  67 E8        29.75F
REGINA         MOCLDY    64  52  63 SE13      29.78R
YORKTON        CLOUDY    64  54  68 SE5       29.82F
N. BATTLEFORD  MOCLDY    64  52  63 E21G31    29.67R